GW5170 Weather Reports


time (UTC)temp
C
wind
direction
speed
KPH
gust
KPH
rain 1hr
cm
rain 24hr
cm
rain mn
cm
humidity
%
barometer
mb
20260503221803 24 280 8.0 11.3 0.00 0.03 0.03 26 1006.0
20260503221301 24 109 6.4 12.9 0.00 0.03 0.03 27 1005.9
20260503220757 24 314 17.7 20.9 0.00 0.03 0.03 27 1005.9
20260503220254 24 248 6.4 6.4 0.00 0.03 0.03 26 1005.9
20260503215751 24 308 12.9 16.1 0.00 0.03 0.03 27 1005.7
20260503215248 24 250 9.7 12.9 0.00 0.03 0.03 29 1005.7
20260503214746 24 305 12.9 17.7 0.00 0.03 0.03 29 1005.6
20260503214242 25 240 11.3 14.5 0.00 0.03 0.03 29 1005.6
20260503213740 24 280 14.5 17.7 0.00 0.03 0.03 31 1005.8
20260503213238 25 244 8.0 11.3 0.00 0.03 0.03 31 1005.9
20260503212734 24 268 9.7 16.1 0.00 0.03 0.03 32 1005.8
20260503212232 24 269 9.7 16.1 0.00 0.03 0.03 32 1005.7
20260503211729 23 290 8.0 12.9 0.00 0.03 0.03 32 1006.0
20260503211225 23 290 8.0 11.3 0.00 0.03 0.03 33 1006.0
20260503210721 23 318 9.7 11.3 0.00 0.03 0.03 34 1006.2
20260503210219 23 63 11.3 14.5 0.00 0.03 0.03 33 1006.3
20260503205714 23 250 17.7 20.9 0.00 0.03 0.03 33 1006.4
20260503205210 23 248 8.0 9.7 0.00 0.03 0.03 33 1006.4
20260503204707 23 241 9.7 11.3 0.00 0.03 0.03 34 1006.6
20260503204205 23 285 9.7 11.3 0.00 0.03 0.03 34 1006.5
20260503203701 23 228 14.5 16.1 0.00 0.03 0.03 34 1006.6
20260503203159 23 312 14.5 16.1 0.00 0.03 0.03 35 1006.8
20260503202656 23 289 6.4 11.3 0.00 0.03 0.03 36 1006.8
20260503202154 22 252 19.3 25.7 0.00 0.03 0.03 35 1006.9
20260503201652 23 239 4.8 6.4 0.00 0.03 0.03 35 1006.8
20260503201149 22 249 11.3 14.5 0.00 0.03 0.03 36 1007.2
20260503200645 22 250 3.2 4.8 0.00 0.03 0.03 35 1007.0
20260503200141 22 348 11.3 14.5 0.00 0.03 0.03 36 1007.1
20260503195638 22 263 16.1 17.7 0.00 0.03 0.03 36 1007.2
20260503195135 22 275 22.5 29.0 0.00 0.03 0.03 36 1007.4
20260503194632 22 241 9.7 16.1 0.00 0.03 0.03 36 1007.3
20260503194127 21 57 6.4 9.7 0.00 0.03 0.03 37 1007.5
20260503193625 21 349 17.7 22.5 0.00 0.03 0.03 37 1007.4
20260503193120 21 257 22.5 27.4 0.00 0.03 0.03 37 1007.5
20260503192616 21 52 22.5 37.0 0.00 0.03 0.03 37 1007.8
20260503192112 21 296 4.8 9.7 0.00 0.03 0.03 37 1007.6
20260503191609 22 282 17.7 24.1 0.00 0.03 0.03 36 1007.8
20260503191106 21 292 6.4 9.7 0.00 0.03 0.03 37 1007.8
20260503190603 21 254 19.3 25.7 0.00 0.03 0.03 38 1007.6
20260503190100 21 255 19.3 24.1 0.00 0.03 0.03 37 1007.8
20260503185556 20 194 14.5 17.7 0.00 0.03 0.03 37 1007.9
20260503185056 20 253 9.7 11.3 0.00 0.03 0.03 39 1007.9
20260503184552 20 318 8.0 9.7 0.00 0.03 0.03 39 1008.1
20260503184049 20 264 8.0 9.7 0.00 0.03 0.03 39 1008.3
20260503183545 20 302 11.3 16.1 0.00 0.03 0.03 39 1008.4
20260503183043 20 276 8.0 9.7 0.00 0.03 0.03 40 1008.3
20260503182541 20 273 11.3 12.9 0.00 0.03 0.03 39 1008.4
20260503182039 19 285 9.7 11.3 0.00 0.03 0.03 40 1008.5
20260503181535 19 44 6.4 9.7 0.00 0.03 0.03 40 1008.6
20260503181032 19 121 6.4 11.3 0.00 0.03 0.03 40 1008.5
20260503180529 19 252 12.9 14.5 0.00 0.03 0.03 40 1008.7
20260503180026 18 298 6.4 14.5 0.00 0.03 0.03 40 1008.8
20260503175524 18 314 16.1 22.5 0.00 0.03 0.03 41 1009.1
20260503175020 18 261 14.5 17.7 0.00 0.03 0.03 41 1008.8
20260503174518 18 133 4.8 6.4 0.00 0.03 0.03 41 1009.0
20260503174014 19 45 9.7 12.9 0.00 0.03 0.03 40 1009.1
20260503173509 18 237 17.7 24.1 0.00 0.03 0.03 41 1009.2
20260503173006 18 349 9.7 11.3 0.00 0.03 0.03 41 1009.3
20260503172504 17 260 20.9 27.4 0.00 0.03 0.03 42 1009.2
20260503172001 18 310 19.3 27.4 0.00 0.03 0.03 41 1009.3
20260503171457 17 229 14.5 16.1 0.00 0.03 0.03 42 1009.4
20260503170954 17 270 22.5 30.6 0.00 0.03 0.03 42 1009.5
20260503170450 17 250 20.9 25.7 0.00 0.03 0.03 42 1009.5
20260503150843 13 215 20.9 22.5 0.00 0.03 0.03 53 1010.9
20260503150339 13 214 14.5 16.1 0.00 0.03 0.03 55 1011.1
20260503140303 11 195 14.5 20.9 0.00 0.03 0.03 61 1011.1
20260503131233 9 190 6.4 9.7 0.00 0.00 0.00 70 1013.0
20260503130730 9 217 6.4 11.3 0.00 0.00 0.00 70 1013.2
20260503130227 9 209 4.8 4.8 0.00 0.00 0.00 71 1013.6
20260503120153 9 208 6.4 6.4 0.00 0.00 0.00 64 1014.2
20260503110621 8 249 4.8 4.8 0.00 0.00 0.00 68 1014.4
20260503110118 8 306 1.6 1.6 0.00 0.00 0.00 70 1014.6
20260503090508 8 257 6.4 9.7 0.00 0.00 0.00 58 1014.9
20260503081428 8 223 4.8 4.8 0.00 0.00 0.00 58 1014.9
20260503080925 8 250 4.8 6.4 0.00 0.00 0.00 58 1015.1
20260503080422 8 236 3.2 4.8 0.00 0.00 0.00 58 1015.1
20260503072858 7 309 3.2 3.2 0.00 0.00 0.00 58 1014.9
20260503072355 7 265 3.2 3.2 0.00 0.00 0.00 58 1015.0
20260503071851 7 279 3.2 3.2 0.00 0.00 0.00 58 1015.0
20260503071349 7 228 3.2 3.2 0.00 0.00 0.00 58 1015.0
20260503070844 7 274 3.2 3.2 0.00 0.00 0.00 57 1015.1
20260503070343 7 303 3.2 3.2 0.00 0.00 0.00 57 1015.1
20260503060308 8 277 1.6 3.2 0.00 0.00 0.00 56 1015.7
20260503054755 8 276 3.2 3.2 0.00 0.00 0.00 55 1015.8
20260503054251 8 227 3.2 3.2 0.00 0.00 0.00 54 1015.7
20260503053749 8 283 4.8 6.4 0.00 0.00 0.00 54 1015.7
20260503053248 8 269 6.4 6.4 0.00 0.00 0.00 54 1015.9
20260503052744 8 231 3.2 4.8 0.00 0.00 0.00 55 1015.8
20260503052241 8 213 6.4 6.4 0.00 0.00 0.00 54 1015.8
20260503051736 8 222 6.4 6.4 0.00 0.00 0.00 54 1015.8
20260503051234 8 209 4.8 4.8 0.00 0.00 0.00 54 1015.8
20260503050730 8 289 6.4 9.7 0.00 0.00 0.00 54 1015.9
20260503050226 8 225 4.8 6.4 0.00 0.00 0.00 53 1015.9
20260503045724 8 223 6.4 6.4 0.00 0.00 0.00 53 1015.8
20260503045222 8 228 3.2 4.8 0.00 0.00 0.00 53 1015.9
20260503044718 8 245 6.4 9.7 0.00 0.00 0.00 52 1016.1
20260503044216 8 258 3.2 4.8 0.00 0.00 0.00 52 1016.1
20260503043712 8 224 3.2 3.2 0.00 0.00 0.00 52 1016.1
20260503043210 8 310 3.2 4.8 0.00 0.00 0.00 51 1016.0
20260503042705 9 276 4.8 6.4 0.00 0.00 0.00 51 1016.3
20260503042202 9 243 3.2 4.8 0.00 0.00 0.00 50 1016.2
20260503041658 9 245 6.4 9.7 0.00 0.00 0.00 50 1016.1
20260503041156 9 245 8.0 11.3 0.00 0.00 0.00 49 1016.3
20260503040653 9 242 6.4 9.7 0.00 0.00 0.00 49 1016.2
20260503040151 9 251 4.8 4.8 0.00 0.00 0.00 49 1016.3
20260503035647 9 247 3.2 4.8 0.00 0.00 0.00 49 1016.5
20260503035145 9 315 3.2 4.8 0.00 0.00 0.00 49 1016.5
20260503034642 10 286 4.8 4.8 0.00 0.00 0.00 49 1016.5
20260503034139 10 229 3.2 6.4 0.00 0.00 0.00 48 1016.6
20260503033636 10 248 9.7 11.3 0.00 0.00 0.00 48 1016.6
20260503033134 10 264 4.8 4.8 0.00 0.00 0.00 48 1016.7
20260503032632 10 350 6.4 11.3 0.00 0.00 0.00 48 1016.6
20260503032131 10 209 4.8 4.8 0.00 0.00 0.00 47 1016.6
20260503031627 10 283 6.4 9.7 0.00 0.00 0.00 47 1016.7
20260503031125 10 269 4.8 4.8 0.00 0.00 0.00 47 1016.8
20260503030621 10 254 8.0 9.7 0.00 0.00 0.00 46 1017.1
20260503030118 10 225 4.8 6.4 0.00 0.00 0.00 46 1016.8
20260503025614 10 272 3.2 4.8 0.00 0.00 0.00 46 1016.7
20260503025113 10 291 3.2 4.8 0.00 0.00 0.00 46 1017.1
20260503024608 10 285 4.8 4.8 0.00 0.00 0.00 46 1017.0
20260503024106 10 293 1.6 1.6 0.00 0.00 0.00 46 1017.0
20260503023602 10 272 3.2 3.2 0.00 0.00 0.00 45 1017.2
20260503023100 10 213 3.2 4.8 0.00 0.00 0.00 45 1017.0
20260503022555 11 262 4.8 4.8 0.00 0.00 0.00 44 1017.0
20260503022050 11 272 6.4 9.7 0.00 0.00 0.00 44 1016.9
20260503021547 11 287 4.8 6.4 0.00 0.00 0.00 44 1016.9
20260503021044 11 230 3.2 4.8 0.00 0.00 0.00 43 1017.0
20260503020541 11 298 3.2 4.8 0.00 0.00 0.00 42 1017.1
20260503020038 11 280 6.4 6.4 0.00 0.00 0.00 41 1016.9
20260503015535 12 242 6.4 6.4 0.00 0.00 0.00 40 1016.9
20260503015032 12 240 4.8 6.4 0.00 0.00 0.00 39 1016.8
20260503014528 12 255 8.0 9.7 0.00 0.00 0.00 39 1016.8
20260503014026 12 271 6.4 9.7 0.00 0.00 0.00 38 1016.9
20260503013523 12 230 3.2 4.8 0.00 0.00 0.00 38 1016.9
20260503013021 13 270 3.2 3.2 0.00 0.00 0.00 37 1016.6
20260503012518 13 316 6.4 9.7 0.00 0.00 0.00 36 1016.7
20260503012014 13 233 9.7 9.7 0.00 0.00 0.00 36 1016.4
20260503011511 13 239 8.0 11.3 0.00 0.00 0.00 36 1016.7
20260503011008 13 261 8.0 11.3 0.00 0.00 0.00 36 1016.9
20260503010504 13 261 8.0 9.7 0.00 0.00 0.00 35 1016.7
20260503010002 13 252 6.4 6.4 0.00 0.00 0.00 35 1016.9
20260503005459 13 253 6.4 9.7 0.00 0.00 0.00 35 1016.8
20260503004956 13 270 6.4 6.4 0.00 0.00 0.00 35 1016.8
20260503004452 14 262 4.8 4.8 0.00 0.00 0.00 34 1016.7
20260503003950 14 260 11.3 14.5 0.00 0.00 0.00 34 1016.8
20260503003447 15 322 1.6 3.2 0.00 0.00 0.00 33 1016.9
20260503002944 15 336 4.8 6.4 0.00 0.00 0.00 32 1016.9
20260503002441 15 357 6.4 6.4 0.00 0.00 0.00 32 1016.8
20260503001937 15 261 9.7 11.3 0.00 0.00 0.00 31 1016.9
20260503001434 15 271 4.8 6.4 0.00 0.00 0.00 31 1016.8
20260503000932 15 288 8.0 11.3 0.00 0.00 0.00 32 1016.8
20260503000430 15 251 4.8 6.4 0.00 0.00 0.00 31 1016.9
20260502235926 15 317 3.2 6.4 0.00 0.00 0.00 31 1017.0
20260502235422 15 309 6.4 6.4 0.00 0.00 0.00 31 1017.0
20260502234920 15 267 6.4 9.7 0.00 0.00 0.00 30 1017.1
20260502234411 15 287 22.5 25.7 0.00 0.00 0.00 30 1016.9
20260502233908 15 337 11.3 14.5 0.00 0.00 0.00 29 1017.2
20260502233403 15 298 11.3 14.5 0.00 0.00 0.00 30 1017.2
20260502232901 15 340 4.8 4.8 0.00 0.00 0.00 30 1017.3
20260502232357 15 311 6.4 9.7 0.00 0.00 0.00 30 1017.3
20260502231854 16 235 9.7 14.5 0.00 0.00 0.00 29 1017.3
20260502231351 15 312 4.8 9.7 0.00 0.00 0.00 29 1017.4
20260502230849 16 239 6.4 9.7 0.00 0.00 0.00 28 1017.5
20260502230348 15 237 9.7 12.9 0.00 0.00 0.00 28 1017.4
20260502225844 16 306 6.4 6.4 0.00 0.00 0.00 28 1017.4
20260502225340 15 304 4.8 9.7 0.00 0.00 0.00 29 1017.5
20260502224837 16 334 11.3 12.9 0.00 0.00 0.00 29 1017.7
20260502224333 15 315 11.3 14.5 0.00 0.00 0.00 29 1017.8
20260502223831 16 294 17.7 20.9 0.00 0.00 0.00 29 1017.6
20260502223329 16 312 12.9 16.1 0.00 0.00 0.00 29 1017.7
20260502222826 16 207 6.4 11.3 0.00 0.00 0.00 28 1017.7
20260502222323 16 271 8.0 9.7 0.00 0.00 0.00 29 1017.8